Weather observations for the past three days for
Grand Junction Regional Airport
Imperial (Metric)
Date Time (mdt) Wind (mph) Vis. (mi.) Weather Sky Cond. Temperature (ºF) Relative Humidity Wind Chill (°F) Heat Index (°F) Pressure Precipitation (in)
Air Dwpt 6 hour altimeter (in) sea level (mb) 1 hr 3 hr 6 hr
Max. Min.
22 22:53 E 16 10.00 Fair CLR 73.9 50 43% 30.16 1014.8
22 21:53 E 14 10.00 Fair CLR 75.9 52 43% 78 30.14 1013.6
22 20:53 SE 12 10.00 Fair CLR 81 51.1 35% 80 30.11 1012.6
22 19:53 SE 10 10.00 Fair CLR 84.9 48 28% 83 30.1 1012.4
22 18:53 S 14 10.00 Fair CLR 87.1 53.1 31% 85 30.09 1012.3
22 17:53 SE 9 10.00 Fair CLR 87.1 55.9 89.1 75 35% 86 30.11 1012.5
22 16:53 Calm 10.00 Fair CLR 86 55.9 36% 85 30.11 1012.8
22 15:53 Calm 10.00 Fair CLR 87.1 57 36% 86 30.12 1013.2
22 14:53 Calm 10.00 Fair CLR 84 55.9 38% 83 30.15 1014.2
22 13:53 NW 8 10.00 Fair CLR 82.9 55.9 40% 82 30.17 1014.8
22 12:53 Calm 10.00 Fair CLR 79 55.9 45% 80 30.19 1016.0
22 11:53 SE 3 10.00 Fair CLR 75 55 77 57.9 50% 78 30.21 1017.0
22 10:53 E 5 10.00 Fair CLR 72 55 55% 30.22 1017.3
22 09:53 SE 9 10.00 Fair CLR 71.1 55 57% 30.22 1017.6
22 08:53 E 5 10.00 Fair CLR 68 55 63% 30.22 1017.8
22 07:53 SE 5 10.00 Fair CLR 63 54 73% 30.22 1018.3
22 06:53 Calm 10.00 Fair CLR 59 53.1 81% 30.21 1017.7
22 05:53 E 8 10.00 Fair CLR 61 51.1 63 57.9 70% 30.2 1016.7
22 04:53 E 13 10.00 Fair CLR 60.1 52 75% 30.18 1016.2
22 03:53 E 3 10.00 Fair CLR 57.9 54 87% 30.18 1016.5
22 02:53 E 8 10.00 Fair CLR 62.1 52 70% 30.17 1015.9
22 01:53 NE 14 10.00 Fair CLR 62.1 53.1 73% 30.17 1016.4
22 00:53 E 9 10.00 Fair CLR 62.1 54 75% 30.17 1016.5
21 23:53 E 13 10.00 Fair CLR 63 55.9 75.9 63 78% 30.16 1016.3 0.27
21 22:53 E 14 G 26 10.00 Fair CLR 64.9 57 76% 30.15 1015.7
21 21:53 E 14 10.00 Fair CLR 63 57.9 84% 30.14 1015.4
21 20:53 Vrbl 3 10.00 Fair CLR 63 57.9 84% 30.1 1014.0 0.27
21 19:53 E 30 G 40 5.00 Light Rain and Windy SCT038 BKN075 OVC090 64 57.9 81% 30.04 1011.6 0.25
21 18:53 W 21 G 29 5.00 Thunderstorm Rain and Breezy SCT050 BKN080 OVC110 70 59 68% 30.13 1014.1 0.02
21 17:53 SE 8 10.00 A Few Clouds FEW120 75.9 55.9 77 62.1 50% 78 30.06 1011.2 0.02
21 16:53 Vrbl 6 10.00 Fair CLR 75.9 55 48% 78 30.05 1011.0
21 15:53 E 16 10.00 Partly Cloudy SCT075 73.9 57 56% 30.08 1012.0
21 14:53 E 16 10.00 Overcast OVC075 71.1 59 66% 30.14 1014.5 0.02
21 13:53 E 5 10.00 Overcast FEW050 OVC080 68 57 68% 30.21 1017.5 0.01
21 12:53 E 13 6.00 Thunderstorm in Vicinity Light Rain FEW047 SCT075 OVC100 64 57 78% 30.2 1017.3 0.01
21 11:53 SE 22 10.00 Mostly Cloudy and Breezy FEW027 FEW090 BKN110 62.1 57 69.1 62.1 84% 30.21 1018.0 0.04 0.07
21 10:53 E 12 6.00 Light Rain SCT065 OVC090 64.9 55.9 73% 30.22 1018.1 0.03
21 09:53 S 18 10.00 Light Rain FEW055 BKN095 OVC110 66.9 54 63% 30.21 1017.5
21 08:53 SE 17 G 26 10.00 Partly Cloudy SCT110 66.9 52 59% 30.15 1015.6
21 07:53 E 26 G 31 10.00 A Few Clouds and Windy FEW110 66 53.1 63% 30.13 1014.4
21 06:53 SE 16 G 25 10.00 Fair CLR 66.9 53.1 61% 30.09 1012.8
21 05:53 SE 18 G 28 10.00 A Few Clouds FEW110 68 52 69.1 64.9 57% 30.15 1014.5
21 04:53 S 13 10.00 Fair CLR 68 52 57% 30.13 1014.0
21 03:53 SE 14 10.00 Fair CLR 69.1 52 55% 30.11 1012.3
21 02:53 E 14 10.00 Fair CLR 66 53.1 63% 30.1 1011.2
21 01:53 E 12 10.00 Fair CLR 66 53.1 63% 30.11 1011.8
21 00:53 E 16 10.00 Fair CLR 66 53.1 63% 30.11 1011.9
20 23:53 E 12 G 22 10.00 Fair CLR 66 53.1 73 64.9 63% 30.1 1011.6
20 22:53 SE 23 G 35 10.00 Fair and Breezy CLR 66 53.1 63% 30.1 1012.2
20 21:53 S 25 G 38 10.00 Fair and Breezy CLR 64.9 54 68% 30.12 1013.0
20 20:53 SE 30 G 44 10.00 Light Rain and Windy CLR 64.9 54 68% 30.11 1013.0
20 19:53 E 31 G 48 10.00 Light Rain and Windy CLR 70 52 53% 30.1 1012.3
20 18:53 SE 23 G 39 10.00 Light Rain and Breezy CLR 72 54 53% 30.08 1011.5
20 17:53 SE 21 G 39 10.00 Light Rain and Breezy FEW100 SCT120 73 52 96.1 62.1 48% 30.04 1010.5 1.07
20 16:53 SE 3 10.00 Light Rain FEW032 BKN100 72 55 55% 30 1009.2 1.07
20 15:53 NW 18 G 28 5.00 Thunderstorm Light Rain FEW032 BKN100 82 50 33% 81 29.99 1008.0
20 14:53 S 17 G 26 10.00 Fair CLR 96.1 46 18% 92 29.95 1005.4
20 13:53 S 17 G 30 5.00 Thunderstorm in Vicinity FEW004 93.9 45 18% 90 29.99 1006.8
20 12:53 SW 14 G 25 10.00 Mostly Cloudy BKN095 93 46 20% 89 30.01 1007.9
20 11:53 S 23 G 31 10.00 Mostly Cloudy and Breezy BKN095 91 46.9 91.9 71.1 22% 88 30.03 1008.8
20 10:53 SE 9 G 23 10.00 A Few Clouds FEW120 86 46.9 26% 83 30.04 1009.1
20 09:53 SE 18 9.00 Mostly Cloudy BKN120 84 46 27% 82 30.06 1009.7
20 08:53 E 15 G 28 10.00 A Few Clouds FEW120 80.1 42.1 26% 79 30.06 1009.7
20 07:53 SE 21 G 29 9.00 Fair and Breezy CLR 79 46.9 32% 79 30.04 1008.8
20 06:53 E 20 G 29 10.00 Fair CLR 75.9 37.9 25% 77 30.02 1008.2
20 05:53 E 17 10.00 Fair CLR 71.1 32 77 69.1 24% 30 1007.7
20 04:53 E 18 10.00 Fair CLR 70 30.9 23% 29.98 1007.1
20 03:53 E 18 10.00 Fair CLR 72 30.9 22% 29.97 1006.8
20 02:53 E 7 10.00 Fair CLR 75 30.9 20% 76 29.96 1006.1
20 01:53 E 12 10.00 Fair CLR 77 28 16% 77 29.95 1005.8
20 00:53 E 8 10.00 Fair CLR 72 19 13% 29.95 1006.4
19 23:53 E 6 10.00 Fair CLR 71.1 14 91.9 71.1 11% 29.94 1006.5
Date Time (mdt) Wind (mph) Vis. (mi.) Weather Sky Cond. Air Dwpt Max. Min. Relative Humidity Wind Chill (°F) Heat Index (°F) altimeter (in) sea level (mb) 1 hr 3 hr 6 hr
6 hour
Temperature (ºF) Pressure Precipitation (in)